Henrikh Movsisyan

チーフスカウト - BKMA
10 9月 2028
日曜日
処理

性格

適応力 (14) 野心 (7) 物議 (3) 忠誠心 (18) プレッシャー耐性 (2) プロ意識 (11) スポーツマンシップ (1) 気質 (12)

プロフィール

指導スタイル 民主型
ライセンス 大陸B級
決断力 7
人材管理 3
モチベーション 8
規律 7
仕事満足度
90%
疲労度
0%
役職 チーフスカウト
給与 10.3K 週給
契約 14.03.2030

パフォーマンス

態度 良い
トレーニング効果
22%
選手育成
35%
怪我予防
35%
戦術実行
20%

最近の出来事

補強会議に出席 たった今
補強会議に出席 たった今
獲得候補を推薦 たった今
補強会議に出席 7日前
補強会議に出席 7日前
獲得候補を推薦 7日前
獲得候補を推薦 7日前
獲得候補を推薦 7日前

監視中

78
選手 クラブ 状態 能力 自信 視察済み 最終確認 最新投票
Alexandre Llovet Urartu アクティブ 89 / 85 58% 1 31.07.2028 承認
Aram Bayramyan Pyunik アクティブ 76 / 91 58% 1 12.06.2028 承認
Edgar Karapetyan Pyunik アクティブ 81 / 93 58% 1 01.06.2028 承認
Luis Olivera Defensores Unidos アクティブ 124 / 96 40% 2 30.12.2027 -
Lautaro Núñez Alvarado アクティブ 107 / 95 40% 1 30.12.2027 -
Hosea Michael Remo Stars アクティブ 86 / 106 40% 2 28.12.2027 -
Franco Malagueño Colegiales アクティブ 93 / 101 40% 1 28.12.2027 -
Walter Juárez Güemes アクティブ 96 / 104 40% 3 27.12.2027 -
Yeferson Rincon Atletico Venezuela アクティブ 99 / 105 40% 1 26.12.2027 -
Tomás Rojas Atlanta アクティブ 101 / 127 40% 4 25.12.2027 -
Matías Machado Racing アクティブ 126 / 119 40% 4 25.12.2027 -
Matías Sánchez Racing アクティブ 103 / 117 40% 3 24.12.2027 -
Ismael Cortez Gimnasia y Esgrima アクティブ 117 / 129 40% 1 23.12.2027 -
Rodrigo Ramírez Nueva Chicago アクティブ 126 / 98 40% 2 19.12.2027 -
Valentín Serrano Arsenal アクティブ 115 / 115 40% 2 16.12.2027 -
Agustín Benítez Defensores アクティブ 113 / 123 40% 5 15.12.2027 -
Fernando Bersano Madryn アクティブ 102 / 119 40% 9 14.12.2027 -
Federico Ulayar Talleres アクティブ 93 / 84 40% 3 13.12.2027 -
Martín García Atlanta アクティブ 111 / 118 40% 3 11.12.2027 -
Tiago Ferreyra Mitre アクティブ 116 / 105 40% 1 11.12.2027 -
Leandro Lucero Temperley アクティブ 130 / 106 40% 1 08.12.2027 -
Franco Díaz Temperley アクティブ 110 / 137 40% 3 06.12.2027 -
Marcos Enrique Tristán Suárez アクティブ 113 / 98 40% 3 24.11.2027 -
Yeferson Rodallega Envigado アクティブ 101 / 124 40% 2 24.11.2027 -
Pedro Sanz Central Norte アクティブ 121 / 120 40% 2 22.11.2027 -
Misael Tarón Ferro Carril Oeste アクティブ 129 / 115 40% 1 21.11.2027 -
Santiago Kubiszyn Morón アクティブ 117 / 107 40% 2 20.11.2027 -
Simón Contreras Iquique アクティブ 103 / 87 40% 1 20.11.2027 -
Tomás Ferreyra Defensores Unidos アクティブ 126 / 127 40% 5 17.11.2027 -
Mauricio Guzmán Tristán Suárez アクティブ 105 / 111 40% 1 17.11.2027 -
Maico Quiroz Güemes アクティブ 115 / 102 40% 4 15.11.2027 -
Marcio Gómez Racing アクティブ 115 / 103 40% 2 05.11.2027 -
Pedro Souto Temperley アクティブ 106 / 105 40% 4 29.10.2027 -
Nicolás Fernández Maipú アクティブ 119 / 121 40% 3 28.10.2027 -
Braian Aranda Agropecuario Argentino アクティブ 110 / 107 40% 2 26.10.2027 -
Brian Nievas Chaco For Ever アクティブ 104 / 117 40% 2 21.10.2027 -
Franco Camargo Gimnasia y Esgrima アクティブ 113 / 103 40% 2 19.10.2027 -
Tomás Porra Barracas Central アクティブ 130 / 115 40% 1 19.10.2027 -
Yvo Calleros Madryn アクティブ 118 / 110 40% 2 18.10.2027 -
Matías Bazzi Talleres アクティブ 88 / 103 40% 2 16.10.2027 -
Alejo Tabares All Boys アクティブ 109 / 105 40% 1 14.10.2027 -
Ian Pérez Defensores アクティブ 106 / 92 40% 1 02.10.2027 -
Tomás Castro Ponce Atlanta アクティブ 102 / 108 40% 1 25.09.2027 -
Lucas Monzón Alvarado アクティブ 127 / 127 40% 1 19.09.2027 -
Gabriel Díaz Patronato アクティブ 100 / 121 40% 1 06.09.2027 -
Ruslan Apekov Torpedo Moscow アクティブ 113 / 91 40% 2 30.12.2026 -
Víctor Guzmán Sporting CP アクティブ 93 / 109 40% 1 28.12.2026 -
Denis Rubanov Dinamo Stavropol アクティブ 85 / 74 40% 1 27.12.2026 -
Dmitry Kuptsov Spartak Tambov アクティブ 97 / 77 40% 1 27.12.2026 -
Rüstəm Əhmədzadə Sumgayit アクティブ 123 / 102 40% 2 24.12.2026 -
Darío Ramírez Real Sociedad アクティブ 84 / 101 40% 1 23.12.2026 -
Kamran Aliev SKA Khabarovsk アクティブ 119 / 98 40% 1 23.12.2026 -
Akintunde Azeez US Bougouni アクティブ 94 / 83 40% 1 23.12.2026 -
Felipe Anderson Palmeiras アクティブ 133 / 134 40% 2 21.12.2026 -
Yeangel Montero Naxxar Lions アクティブ 104 / 93 40% 2 21.12.2026 -
Darko Todorović Fakel アクティブ 105 / 100 40% 1 20.12.2026 -
Paolo Yrizar Chernomorets アクティブ 78 / 111 40% 1 18.12.2026 -
Ekain Orobengoa Real Sociedad アクティブ 99 / 95 40% 1 18.12.2026 -
Bruno Gomes Valletta アクティブ 104 / 98 40% 1 17.12.2026 -
Ramazan Gadjimuradov Chelyabinsk アクティブ 111 / 102 40% 1 16.12.2026 -
Mateo Ortale Khazar アクティブ 113 / 103 40% 1 15.12.2026 -
Tumiso Mogakwe Birkirkara アクティブ 83 / 88 40% 1 15.12.2026 -
Alexandr Yushin Torpedo Moscow アクティブ 117 / 118 40% 1 11.12.2026 -
Said Aliev Rotor アクティブ 86 / 85 40% 1 09.12.2026 -
Roko Prša Valletta アクティブ 96 / 99 40% 1 08.12.2026 -
Alexandr Olenev Nart アクティブ 67 / 84 40% 1 07.12.2026 -
Shahriyar Abdullayev Ravan アクティブ 112 / 97 40% 1 07.12.2026 -
Gbolahan Salami アクティブ 86 / 89 40% 1 02.12.2026 -
Stanislav Biblyk Chaika アクティブ 101 / 84 40% 1 25.11.2026 -
Mason Bennett Harrogate Town アクティブ 82 / 95 40% 1 25.11.2026 -
Salman Abubakar Mosta アクティブ 92 / 77 40% 1 23.11.2026 -
Teddy Teuma Sliema Wanderers アクティブ 128 / 132 40% 1 21.11.2026 -
Nikita Simdyankin KDV Tomsk アクティブ 89 / 89 40% 1 19.11.2026 -
Dmitry Lesnikov Volgar アクティブ 78 / 99 40% 1 17.11.2026 -
Miloš Jovičić Zabbar St. Patrick アクティブ 84 / 98 40% 1 17.11.2026 -
Moussa Kanté Ararat アクティブ 93 / 104 55% 1 10.08.2026 -
Mauro Van アクティブ 78 / 82 55% 1 03.08.2026 観察
Edgar Grigoryan Ararat-Armenia アクティブ 108 / 117 40% 1 03.08.2026 -